Location: 10033 Water Well
(34.0865°N, 106.8959°W)
Time: 15:21:42
(UTC+00:00)

Resurs 01 Rocket - Pass Details

Date: 13 January 2026
Orbit: 627 x 635 km, 97.7° (Epoch: 11 February)

Event Time Altitude Azimuth Distance (km) Brightness Sun altitude
Rises 02:50:06 0° 188° (S) 2,899 5.2 -30.8°
Reaches altitude 10° 02:52:27 10° 198° (SSW) 1,996 4.4 -31.3°
Enters shadow 02:54:28 23° 218° (SW) 1,342 3.6 -31.7°
Exits shadow 03:00:06 11° 326° (NW) 1,927 4.4 -32.9°
Drops below altitude 10° 03:00:19 10° 327° (NNW) 2,007 4.4 -32.9°
Sets 03:02:42 0° 337° (NNW) 2,918 5.2 -33.4°
